[[{"header":{"parameterUnit":"m.s-1","parameterCategory":1,"la1":30.2991,"la2":30.254,"lo1":-89.0895,"lo2":-89.0444,"dy":0.0017,"dx":0.0017,"nx":28,"ny":28,"refTime":"2025-06-13T21:00:00:Z","depth":0,"parameterNumber":2,"parameterNumberName":"U-component_of_WINDS"},"data":[0,0,0,0,0,0,0,0,0,0,0,0,0,0,0,0,0,0,0,0,0,0,0,0,0,0,0,0,0,0,0,0,0,0,0,0,0,0,0,0,0,0,0,0,0,0,0,0,0,0,0,0,0,0,0,0,0,0,1.0261,1.0262,0,1.0363,1.0364,1.0365,1.0402,1.0401,1.0401,1.0401,1.0504,1.0507,1.051,0,0,0,0,0,0,0,0,0,0,0,0,0,1.0098,1.0101,1.0261,1.0262,1.0264,1.0363,1.0364,1.0366,1.0402,1.0401,1.0401,1.0401,1.0503,1.0507,1.0511,0,0,0,0,0,0,0,0,0,0,0,0,0,1.0181,1.0101,1.0261,1.0294,1.0298,1.0363,1.0364,1.0366,1.0402,1.0401,1.0401,1.04,1.0502,1.0507,1.0511,1.0551,0,0,1.0525,1.0527,0,0,0,0,0,0,0,0,1.0176,1.0187,1.0288,1.0292,1.0296,1.0369,1.0345,1.0428,1.0402,1.0362,1.0401,1.04,1.046,1.0468,1.0488,1.0555,1.056,1.0526,1.0529,1.0531,1.0532,0,0,0,0,0,0,0,1.017,1.0183,1.0301,1.0289,1.0294,1.0303,1.0315,1.0361,1.0413,1.0366,1.0369,1.038,1.0462,1.0484,1.0491,1.0561,1.0526,1.053,1.0533,1.0534,1.0667,1.0668,0,0,0,0,0,0,1.0159,1.0178,1.0298,1.0305,1.0234,1.0307,1.0319,1.0346,1.0412,1.0422,1.0381,1.0382,1.0476,1.0485,1.0495,1.0546,1.0531,1.0535,1.0538,1.0666,1.0667,1.0668,0,0,0,0,0,0,1.0156,1.017,1.0294,1.0242,1.0259,1.031,1.034,1.0349,1.037,1.0424,1.0433,1.0393,1.0476,1.0488,1.0537,1.055,1.0537,1.0541,1.0666,1.0667,1.0668,1.0648,0,0,0,0,0,0,1.0151,1.0168,1.0184,1.0242,1.0261,1.0335,1.0341,1.0351,1.0378,1.038,1.0438,1.0447,1.0476,1.053,1.0541,1.0556,1.0545,1.0665,1.0666,1.0667,1.0648,1.0649,1.0649,0,0,0,0,0,1.0145,1.0174,1.0184,1.0199,1.0282,1.0335,1.0346,1.038,1.0379,1.0395,1.043,1.0445,1.0546,1.0534,1.0548,1.0564,1.0664,1.0666,1.0667,1.0648,1.0648,1.0649,0,0,0,0,0,0,1.0115,1.0182,1.0194,1.0243,1.0283,1.0341,1.0363,1.0379,1.042,1.042,1.046,1.0473,1.0518,1.0546,1.0531,1.0606,1.0606,1.0611,1.0587,1.0588,1.0588,1.0581,1.0549,0,0,0,0,0,1.0114,1.0152,1.0209,1.0246,1.0266,1.0311,1.0335,1.0358,1.0401,1.0418,1.0456,1.0497,1.0538,1.0564,1.0605,1.0652,1.0665,1.067,1.067,1.0671,1.0674,1.0702,1.0705,1.0674,1.0674,1.0674,0,0,1.0113,1.0154,1.0176,1.0241,1.0275,1.0314,1.0325,1.0365,1.0394,1.0424,1.0472,1.0501,1.055,1.0598,1.0621,1.0623,1.0686,1.0673,1.0673,1.0676,1.0704,1.0707,1.071,1.0675,1.0675,1.0674,0,0,1.013,1.0165,1.0201,1.0235,1.0286,1.0315,1.0324,1.038,1.04,1.045,1.0473,1.0508,1.0578,1.0612,1.0638,1.0669,1.0685,1.0681,1.0684,1.0711,1.0713,1.0716,1.0728,1.0731,1.0684,1.0684,1.0684,0,1.0122,1.0182,1.0217,1.0256,1.0285,1.0314,1.035,1.0381,1.0443,1.0462,1.0462,1.0551,1.0586,1.0643,1.065,1.067,1.0682,1.0675,1.071,1.0713,1.0716,1.0727,1.0732,1.0684,1.0684,1.0684,1.0684,0,1.0169,1.021,1.0233,1.0292,1.0323,1.0361,1.0402,1.0429,1.0448,1.0478,1.0528,1.0571,1.0621,1.0636,1.0655,1.0696,1.0695,1.0702,1.0703,1.0717,1.0729,1.0734,1.0682,1.0683,1.0683,1.0683,0,0,1.0171,1.025,1.0258,1.0286,1.0344,1.0377,1.0415,1.0465,1.0488,1.0529,1.0563,1.0622,1.0629,1.0659,1.0683,1.0706,1.0729,1.071,1.0712,1.0713,1.0777,1.0772,1.0776,1.0739,1.074,1.0741,1.0773,0,1.0197,1.0269,1.0302,1.0359,1.0397,1.0425,1.046,1.0499,1.0528,1.0565,1.0596,1.0638,1.0644,1.0662,1.0686,1.0721,1.0742,1.0719,1.0772,1.0773,1.076,1.0782,1.0777,1.0805,1.0778,1.0779,1.0779,0,1.0237,1.0279,1.034,1.0395,1.0412,1.0442,1.0491,1.0526,1.0571,1.0591,1.0624,1.0647,1.0689,1.0686,1.0745,1.0729,1.0752,1.0773,1.0774,1.0781,1.0777,1.0791,1.0815,1.0819,1.0787,1.0786,1.0785,0,1.0233,1.0305,1.0351,1.0374,1.0439,1.0459,1.0487,1.0533,1.0561,1.0603,1.0621,1.0668,1.0693,1.0729,1.0763,1.0758,1.0819,1.0819,1.0837,1.0836,1.0849,1.0848,1.0878,1.0863,1.0863,1.0863,1.0863,0,1.0259,1.0295,1.035,1.0379,1.042,1.0458,1.0498,1.0528,1.0568,1.0603,1.063,1.0662,1.0705,1.0743,1.077,1.0815,1.0826,1.0843,1.085,1.0842,1.0839,1.0858,1.0857,1.0864,1.0864,1.0863,1.0863,0,1.0262,1.03,1.0352,1.041,1.0425,1.0454,1.0503,1.0531,1.0562,1.0605,1.0618,1.0665,1.071,1.0748,1.0808,1.0826,1.0874,1.0881,1.0858,1.0862,1.0878,1.0877,1.0922,1.0931,1.0908,1.0908,1.0909,0,1.0276,1.0305,1.0366,1.0391,1.0419,1.046,1.0489,1.0527,1.0556,1.061,1.0632,1.068,1.072,1.0792,1.0831,1.0877,1.0887,1.09,1.0894,1.0884,1.0888,1.0886,1.089,1.09,1.09,1.09,1.09,0,1.0298,1.0315,1.0356,1.0404,1.0438,1.0478,1.0517,1.0537,1.0582,1.0613,1.0661,1.0692,1.0753,1.08,1.0851,1.0879,1.0898,1.0902,1.0909,1.09,1.0886,1.0895,1.0861,1.0901,1.0901,1.0901,1.0901,1.0901,1.0307,1.0335,1.0382,1.0427,1.0461,1.0498,1.0528,1.0563,1.0603,1.0656,1.0676,1.0725,1.077,1.084,1.0869,1.0907,1.0909,1.0919,1.0921,1.0923,1.0923,1.0879,1.0916,1.0916,1.0916,1.0916,1.0916,0,1.0331,1.0363,1.0404,1.046,1.0495,1.051,1.0555,1.0583,1.0626,1.0667,1.0706,1.0761,1.0807,1.085,1.0899,1.0921,1.0931,1.0933,1.0932,1.0938,1.0917,1.0907,1.0924,1.0924,1.0924,1.0924,1.0924,1.0924,1.0348,1.0395,1.0418,1.0483,1.0515,1.0563,1.0588,1.0622,1.0655,1.0715,1.0754,1.0782,1.0824,1.0876,1.0919,1.093,1.0947,1.0947,1.0961,1.0941,1.0939,1.0938,1.0929,1.095,1.095,1.0979,1.0979,1.0979]},{"header":{"parameterUnit":"m.s-1","parameterCategory":1,"la1":30.2991,"la2":30.254,"lo1":-89.0895,"lo2":-89.0444,"dy":0.0017,"dx":0.0017,"nx":28,"ny":28,"refTime":"2025-06-13T21:00:00:Z","depth":0,"parameterNumber":3,"parameterNumberName":"V-component_of_WINDS"},"data":[0,0,0,0,0,0,0,0,0,0,0,0,0,0,0,0,0,0,0,0,0,0,0,0,0,0,0,0,0,0,0,0,0,0,0,0,0,0,0,0,0,0,0,0,0,0,0,0,0,0,0,0,0,0,0,0,0,0,2.6853,2.6852,0,2.6779,2.6779,2.6778,2.6739,2.6739,2.6739,2.6739,2.6658,2.6656,2.6654,0,0,0,0,0,0,0,0,0,0,0,0,0,2.6953,2.6951,2.6853,2.6852,2.6851,2.678,2.6779,2.6778,2.6739,2.6739,2.6739,2.6739,2.6658,2.6656,2.6653,0,0,0,0,0,0,0,0,0,0,0,0,0,2.6897,2.6951,2.6853,2.6823,2.682,2.678,2.6779,2.6777,2.6739,2.6739,2.6739,2.6739,2.6659,2.6656,2.6653,2.6635,0,0,2.6643,2.6642,0,0,0,0,0,0,0,0,2.69,2.6894,2.6828,2.6825,2.6821,2.6768,2.6784,2.673,2.6739,2.6769,2.6739,2.6738,2.6694,2.6688,2.6674,2.6632,2.6628,2.6643,2.6641,2.664,2.6639,0,0,0,0,0,0,0,2.6904,2.6897,2.6823,2.6827,2.6823,2.6811,2.6803,2.6774,2.6733,2.6767,2.6764,2.6756,2.6692,2.6678,2.6672,2.6627,2.6643,2.664,2.6639,2.6637,2.6565,2.6565,0,0,0,0,0,0,2.6914,2.69,2.6826,2.6821,2.6862,2.681,2.6801,2.6785,2.6733,2.6725,2.6756,2.6754,2.6683,2.6676,2.6669,2.6645,2.664,2.6637,2.6635,2.6565,2.6565,2.6565,0,0,0,0,0,0,2.6916,2.6908,2.6829,2.686,2.6849,2.6808,2.6791,2.6784,2.6769,2.6725,2.6717,2.6749,2.6683,2.6674,2.6644,2.6642,2.6636,2.6633,2.6565,2.6565,2.6565,2.6597,0,0,0,0,0,0,2.6919,2.6909,2.6903,2.686,2.6848,2.6807,2.6791,2.6782,2.6765,2.6762,2.6717,2.6709,2.6682,2.6649,2.6641,2.6637,2.663,2.6565,2.6565,2.6565,2.6596,2.6598,2.66,0,0,0,0,0,2.6923,2.6913,2.6903,2.6894,2.684,2.6807,2.68,2.6771,2.6765,2.6758,2.6729,2.671,2.6643,2.6647,2.6637,2.6632,2.6565,2.6565,2.6565,2.6595,2.6598,2.66,0,0,0,0,0,0,2.6955,2.6907,2.6895,2.6872,2.6844,2.6801,2.6791,2.6774,2.6746,2.6744,2.6707,2.6697,2.6671,2.6648,2.6653,2.6612,2.6602,2.66,2.6628,2.663,2.6632,2.6638,2.6628,0,0,0,0,0,2.696,2.6939,2.6898,2.6881,2.6868,2.6832,2.6817,2.6797,2.6766,2.6753,2.6722,2.6691,2.6663,2.6645,2.6617,2.6592,2.6581,2.6584,2.6586,2.6588,2.6586,2.6571,2.6572,2.6565,2.6565,2.6565,0,0,2.6969,2.694,2.6929,2.6887,2.6863,2.6841,2.6822,2.6799,2.6782,2.6749,2.672,2.6697,2.6659,2.6632,2.6619,2.6612,2.6586,2.6588,2.659,2.6587,2.6571,2.6572,2.6572,2.6565,2.6565,2.6565,0,0,2.6974,2.695,2.6934,2.6911,2.6876,2.6852,2.6848,2.6807,2.6791,2.6762,2.6737,2.6714,2.6667,2.6641,2.6622,2.6617,2.6598,2.6609,2.6618,2.6604,2.6605,2.6605,2.6603,2.6603,2.6608,2.6608,2.6608,0,2.6988,2.6956,2.6927,2.6906,2.6888,2.6859,2.6841,2.682,2.6776,2.6763,2.6757,2.6698,2.667,2.6637,2.6636,2.6621,2.6614,2.6614,2.6607,2.6607,2.6607,2.6605,2.6604,2.6609,2.6609,2.6609,2.6609,0,2.6976,2.6954,2.6944,2.6906,2.6886,2.6867,2.6833,2.6817,2.6799,2.6775,2.6745,2.6711,2.6676,2.6666,2.6647,2.663,2.6627,2.6615,2.6604,2.661,2.6607,2.6606,2.6611,2.6611,2.661,2.661,0,0,2.6999,2.6945,2.6942,2.6924,2.6883,2.6864,2.6843,2.681,2.6797,2.6767,2.6748,2.6708,2.6697,2.6675,2.6653,2.664,2.6638,2.6629,2.6627,2.6632,2.6616,2.6626,2.6625,2.6626,2.6625,2.6625,2.6619,0,2.6998,2.6961,2.6934,2.6907,2.6885,2.6857,2.6838,2.681,2.6787,2.6764,2.6738,2.6711,2.6698,2.6684,2.6671,2.6642,2.6635,2.6641,2.6605,2.6604,2.6616,2.6624,2.6634,2.663,2.6618,2.6618,2.6618,0,2.6992,2.6966,2.6937,2.6899,2.6888,2.6872,2.684,2.6819,2.6786,2.677,2.6746,2.6723,2.6698,2.669,2.6653,2.6658,2.6642,2.6625,2.6624,2.6619,2.6611,2.6619,2.6628,2.6628,2.6615,2.6616,2.6616,0,2.7012,2.6969,2.6946,2.6932,2.6886,2.6875,2.6856,2.6823,2.6805,2.6775,2.6763,2.6731,2.6713,2.6687,2.6656,2.6653,2.6622,2.6611,2.6607,2.6608,2.6602,2.6602,2.6608,2.6591,2.6591,2.6591,2.6591,0,2.7013,2.6996,2.6955,2.6941,2.692,2.6889,2.6869,2.6847,2.6818,2.6797,2.677,2.6751,2.6711,2.6686,2.6661,2.6635,2.6626,2.6612,2.6605,2.6614,2.6616,2.6603,2.6602,2.6591,2.6591,2.6591,2.6591,0,2.7032,2.7003,2.6977,2.6936,2.6926,2.6913,2.6877,2.6861,2.6837,2.6812,2.6804,2.6765,2.6735,2.6701,2.6659,2.6642,2.6617,2.6607,2.6629,2.6625,2.6622,2.6623,2.6619,2.6617,2.6602,2.6603,2.6603,0,2.7035,2.7022,2.6981,2.6966,2.6948,2.6924,2.6906,2.6875,2.6857,2.6818,2.6806,2.6775,2.6748,2.67,2.6667,2.6634,2.6624,2.6625,2.6619,2.6628,2.6624,2.6625,2.6623,2.6627,2.6627,2.6627,2.6628,0,2.7043,2.703,2.7006,2.6978,2.6957,2.6933,2.6906,2.6896,2.6858,2.6839,2.6809,2.6788,2.6746,2.6714,2.6678,2.6655,2.6634,2.663,2.6627,2.6636,2.6649,2.6642,2.6634,2.663,2.663,2.663,2.6629,2.6629,2.7054,2.7041,2.701,2.6984,2.6962,2.6938,2.6922,2.6896,2.6872,2.6837,2.6818,2.6788,2.6754,2.6704,2.6681,2.6656,2.6649,2.6645,2.6644,2.6644,2.6646,2.6653,2.6649,2.6649,2.6649,2.6649,2.6649,0,2.706,2.704,2.7017,2.6982,2.6962,2.6947,2.6917,2.69,2.6875,2.6846,2.682,2.6785,2.6754,2.6719,2.6686,2.6672,2.6662,2.6664,2.6665,2.666,2.6654,2.666,2.6673,2.6673,2.6673,2.6673,2.6673,2.6673,2.7062,2.7039,2.7022,2.6987,2.6966,2.6938,2.6922,2.69,2.6877,2.684,2.6815,2.6793,2.6761,2.6725,2.6695,2.6685,2.6674,2.6679,2.6667,2.6662,2.666,2.6658,2.6663,2.6677,2.6677,2.6674,2.6674,2.6674]}]]